Overview Statistics Trail Chart Weather Telemetry Raw packets
 

This is the latest recevied weather packets stored in our database for station/object N6GPM. If no packets are shown the sender has not sent any weather packets the latest 10 day(s).

<< 6 7 8 9 10 11 12 >>
Time Temp. Humidity Pressure Rain* Wind** Luminosity Snow
1788635570 30.56° C 16% 1018.9 hPa 0 mm - 411 W/m² -
1788635269 30.56° C 16% 1018.7 hPa 0 mm - 1003 W/m² -
1788634969 30.56° C 16% 1018.9 hPa 0 mm - 1039 W/m² -
1788634668 30° C 16% 1018.9 hPa 0 mm - 1136 W/m² -
1788634363 30° C 16% 1018.9 hPa 0 mm - 1137 W/m² -
1788634057 29.44° C 16% 1018.9 hPa 0 mm - 1266 W/m² -
1788633756 29.44° C 16% 1019.2 hPa 0 mm - 1158 W/m² -
1788633455 29.44° C 16% 1019 hPa 0 mm - 1165 W/m² -
1788633151 29.44° C 16% 1019.3 hPa 0 mm - 1009 W/m² -
1788632845 29.44° C 16% 1019 hPa 0 mm - 1018 W/m² -
1788632545 29.44° C 17% 1018.9 hPa 0 mm - 989 W/m² -
1788632240 30° C 17% 1019 hPa 0 mm - 991 W/m² -
1788631939 29.44° C 16% 1019.3 hPa 0 mm - 1010 W/m² -
1788631634 28.89° C 17% 1019.2 hPa 0 mm - 966 W/m² -
1788631329 28.89° C 17% 1019.2 hPa 0 mm - 908 W/m² -
1788631029 28.33° C 18% 1019.2 hPa 0 mm - 870 W/m² -
1788630724 28.33° C 19% 1019.2 hPa 0 mm - 854 W/m² -
1788630419 27.78° C 20% 1019.4 hPa 0 mm - 850 W/m² -
1788630115 27.78° C 20% 1019.3 hPa 0 mm - 750 W/m² -
1788629810 28.33° C 19% 1018.9 hPa 0 mm - 660 W/m² -
1788629506 27.78° C 19% 1018.9 hPa 0 mm - 737 W/m² -
1788629205 27.22° C 20% 1019 hPa 0 mm - 827 W/m² -
1788628899 27.78° C 22% 1019.2 hPa 0 mm - 774 W/m² -
1788628596 26.67° C 23% 1018.9 hPa 0 mm - 760 W/m² -
1788628291 26.67° C 23% 1018.9 hPa 0 mm - 744 W/m² -

* Rain latest hour (hover to see other rain measurements)
** Current wind speed in m/s (hover to see current wind gust speed)